Location: Unspecified
(0.0000°N, 0.0000°E)
Time: 18:46:10
(UTC+00:00)

deb OV3-4 - Pass Details

Date: 13 April 2026
Orbit: 581 x 4210 km, 40.6° (Epoch: 13 May)

Event Time Altitude Azimuth Distance (km) Brightness Sun altitude
Rises 04:49:29 0° 181° (S) 4,315 ? -17.6°
Reaches altitude 10° 04:55:39 10° 147° (SSE) 4,164 ? -16.0°
Maximum altitude 04:58:42 11° 131° (SE) 4,455 ? -15.3°
Drops below altitude 10° 05:02:13 10° 115° (ESE) 4,995 ? -14.4°
Sets 05:12:50 0° 87° (E) 7,147 ? -11.8°
